Flag for U.S.A. Weather past 2 weeks in Long Beach, California, U.S.A.

Now
52 °F

Sunny.


Feels Like: 52 °F
Forecast: 52 / 65 °F
Wind: No wind

Location: Long Beach Airport

Current Time: Dec 20, 2014 at 8:58:32 AM

Latest Report: Dec 20, 2014 at 7:53 AM


Visibility: 5 mi

Pressure: 30.17 "Hg

Humidity: 89%

Dew point: 49 °F

Location of Long BeachLocation

Historic Weather in Long Beach — Graph

°F

Long Beach temperature yesterday

Maximum temperature yesterday: 66 °F (at 12:53 PM)
Minimum temperature yesterday: 49 °F (at 5:53 AM)
Average temperature yesterday: 57 °F

Past Weeks' High & Low Weather Summary

 TemperatureHumidityPressure
High80 °F (Dec 8, 1:53 PM)100% (Dec 10, 1:53 AM)30.24 "Hg (Dec 10, 1:53 AM)
Low47 °F (Dec 15, 6:53 AM)30% (Dec 8, 1:53 PM)29.83 "Hg (Dec 12, 2:53 AM)
Average60 °F77%30.06 "Hg
* Reported Dec 5 7:53 AM — Dec 20 7:53 AM, Long Beach, Weather by CustomWeather, © 2014

Note: Actual official high and low records may vary slightly from our data, if they occured in-between our weather recording intervals... More about our weather records

Advertising

Long Beach weather history for previous 24 hours

 ConditionsComfort  
Time TempWeatherWind HumidityBarometerVisibility
7:53 AM
Dec 20
52 °FSunny.No wind89%30.17 "Hg5 mi
6:53 AM50 °FSunny.No wind93%30.17 "Hg7 mi
5:53 AM49 °FFog.3 mph93%30.15 "Hg6 mi
4:53 AM51 °FFog.No wind92%30.14 "Hg6 mi
3:53 AM51 °FFog.No wind92%30.14 "Hg6 mi
2:53 AM51 °FFog.No wind92%30.16 "Hg6 mi
1:53 AM52 °FClear.No wind89%30.14 "Hg7 mi
12:53 AM53 °FClear.No wind89%30.17 "Hg8 mi
11:53 PM
Dec 19
53 °FClear.No wind89%30.18 "Hg8 mi
10:53 PM55 °FClear.3 mph87%30.16 "Hg10 mi
9:53 PM58 °FClear.8 mph81%30.19 "Hg10 mi
8:53 PM58 °FClear.8 mph81%30.17 "Hg10 mi
7:53 PM60 °FClear.5 mph72%30.16 "Hg10 mi
6:53 PM60 °FClear.8 mph75%30.17 "Hg10 mi
5:53 PM61 °FClear.8 mph70%30.16 "Hg10 mi
4:53 PM61 °FClear.6 mph67%30.15 "Hg10 mi
3:53 PM63 °FSunny.10 mph63%30.15 "Hg10 mi
2:53 PM63 °FSunny.8 mph60%30.14 "Hg10 mi
1:53 PM64 °FSunny.10 mph58%30.16 "Hg10 mi
12:53 PM66 °FSunny.9 mph52%30.19 "Hg10 mi
11:53 AM65 °FSunny.No wind52%30.20 "Hg10 mi
10:53 AM65 °FSunny.3 mph56%30.21 "Hg10 mi
9:53 AM60 °FSunny.No wind67%30.24 "Hg8 mi
8:53 AM56 °FSunny.No wind75%30.24 "Hg8 mi
Weather by CustomWeather, © 2014

See weather overviewHow to use our weather pages